Printer-friendly version

IAU Minor Planet Center

Minor Planet Center

MPEC 1999-C25: 1999 CV3

The following Minor Planet Electronic Circular may be linked-to from your own Web pages, but must not otherwise be redistributed electronically.


Read MPEC 1999-C24 Read MPEC 1999-C26


M.P.E.C. 1999-C25                                Issued 1999 Feb. 11, 23:27 UT

     The Minor Planet Electronic Circulars contain information on unusual
         minor planets and routine data on comets.  They are published
   on behalf of Commission 20 of the International Astronomical Union by the
          Minor Planet Center, Smithsonian Astrophysical Observatory,
                          Cambridge, MA 02138, U.S.A.

             BMARSDEN@CFA.HARVARD.EDU or GWILLIAMS@CFA.HARVARD.EDU
          URL http://cfa-www.harvard.edu/iau/mpc.html  ISSN 1523-6714

                                   1999 CV3

Observations:
     J99C03V  C1998 12 23.36233 09 50 44.84 -06 12 23.9          17.5        704
     J99C03V  C1998 12 23.37282 09 50 45.41 -06 12 24.3                      704
     J99C03V  C1998 12 23.38352 09 50 46.08 -06 12 25.1          18.0        704
     J99C03V  C1998 12 23.39425 09 50 46.67 -06 12 25.7          18.0        704
     J99C03V  C1998 12 23.40487 09 50 47.34 -06 12 25.9          17.9        704
     J99C03V* C1999 02 10.31428 10 12 35.43 +14 22 38.1          18.5        704
     J99C03V  C1999 02 10.33542 10 12 34.83 +14 24 20.4                      704
     J99C03V  C1999 02 10.35641 10 12 34.24 +14 26 01.5                      704
     J99C03V  C1999 02 10.37735 10 12 33.64 +14 27 43.3                      704
     J99C03V  C1999 02 10.39843 10 12 33.05 +14 29 24.1                      704
     J99C03V  C1999 02 11.01657 10 12 22.07 +15 19 51.0                      557
     J99C03V  C1999 02 11.01891 10 12 22.00 +15 20 02.5                      557
     J99C03V  C1999 02 11.02729 10 12 21.77 +15 20 44.4                      557
     J99C03V  C1999 02 11.02963 10 12 21.71 +15 20 56.0                      557
     J99C03V  C1999 02 11.03314 10 12 21.61 +15 21 13.3          14   V      557
     J99C03V  C1999 02 11.07021 10 12 23.02 +15 24 24.9          13.3 R      758
     J99C03V  C1999 02 11.07204 10 12 22.98 +15 24 33.9          13.4 R      758
     J99C03V  C1999 02 11.07406 10 12 22.95 +15 24 43.9          13.1 R      758
     J99C03V  C1999 02 11.07579 10 12 22.89 +15 24 52.7          13.4 R      758
     J99C03V  C1999 02 11.08159 10 12 22.75 +15 25 21.9          13.4 R      758
     J99C03V  C1999 02 11.08346 10 12 22.70 +15 25 31.3          13.3 R      758
     J99C03V  C1999 02 11.19160 10 12 20.22 +15 34 31.9          16.5        704
     J99C03V  C1999 02 11.19207 10 12 20.20 +15 34 34.1          16.6        704
     J99C03V  C1999 02 11.19254 10 12 20.19 +15 34 36.6          16.4        704
     J99C03V  C1999 02 11.21252 10 12 19.61 +15 36 17.3                      704
     J99C03V  C1999 02 11.21288 10 12 19.60 +15 36 19.5                      704
     J99C03V  C1999 02 11.21336 10 12 19.58 +15 36 22.3                      704
     J99C03V  C1999 02 11.22292 10 12 19.35 +15 37 10.2                      704
     J99C03V  C1999 02 11.22328 10 12 19.32 +15 37 13.0                      704
     J99C03V  C1999 02 11.22375 10 12 19.32 +15 37 14.3                      704
     J99C03V  C1999 02 11.23327 10 12 19.05 +15 38 02.4                      704
     J99C03V  C1999 02 11.23375 10 12 19.04 +15 38 04.6                      704
     J99C03V  C1999 02 11.23423 10 12 18.99 +15 38 07.4                      704
     J99C03V  C1999 02 11.31979 10 12 16.80 +15 45 20.0                      670
     J99C03V  C1999 02 11.33785 10 12 16.24 +15 46 51.5                      670
     J99C03V  C1999 02 11.35312 10 12 15.76 +15 48 08.7                      670
     J99C03V  C1999 02 11.36823 10 12 15.29 +15 49 25.3          13.2 V      670
     J99C03V  C1999 02 11.64520 10 12 09.27 +16 13 30.0          13.4 R      422
     J99C03V  C1999 02 11.64605 10 12 09.24 +16 13 34.4          13.4 R      422
     J99C03V  C1999 02 11.64661 10 12 09.22 +16 13 37.2          13.4 R      422
     J99C03V  C1999 02 11.69668 10 12 07.63 +16 17 53.6          13.4 R      422
     J99C03V  C1999 02 11.69716 10 12 07.61 +16 17 56.3          13.4 R      422
     J99C03V  C1999 02 11.81832 10 12 07.26 +16 27 38.6                      557
     J99C03V  C1999 02 11.81926 10 12 07.23 +16 27 43.4                      557
     J99C03V  C1999 02 11.82020 10 12 07.21 +16 27 48.3                      557
     J99C03V  C1999 02 11.82113 10 12 07.19 +16 27 53.2                      557
     J99C03V  C1999 02 11.84501 10 12 06.70 +16 29 58.0          11.8 R      151
     J99C03V  C1999 02 11.84885 10 12 06.60 +16 30 18.1          12.0 R      151
     J99C03V  C1999 02 11.85043 10 12 06.57 +16 30 26.3          12.0 R      151
     J99C03V  C1999 02 11.85434 10 12 06.46 +16 30 46.9          12.1 R      151

Observer details:
151 Eschenberg Observatory, Winterthur.  Observer M. Griesser.  0.25-m f/8.0
    reflector + CCD.
422 Loomberah.  Observer G. J. Garradd.  0.45-m f/5.4 reflector + CCD.
557 Ondrejov.  Observer P. Pravec.  0.65-m f/3.6 reflector + CCD.
670 Camarillo.  Observer J. E. Rogers.  0.25-m Schmidt-Cassegrain + CCD.
704 Lincoln Laboratory ETS, New Mexico.  Observers M. Blythe, F. Shelly,
    M. Bezpalko.  Measurers J. Stuart, H. Viggh, R. Sayer.  1.0-m f/2.15
    reflector + CCD.
758 BCC Observatory, Cocoa.  Observer I. P. Griffin.  0.30-m f/5 Maksutov
    + CCD.

Orbital elements:
1999 CV3
Epoch 1999 Jan. 22.0 TT = JDT 2451200.5                 Williams
M 299.65908              (2000.0)            P               Q
n   0.55886384     Peri.   96.15901     -0.48698721     +0.83918744
a   1.4597059      Node   141.45286     -0.87236119     -0.48091850
e   0.3939433      Incl.   22.86056     +0.04277152     -0.25393273
P   1.76           H   15.6           G   0.15           U   6
From 50 observations 1998 Dec. 23-1999 Feb. 11, mean residual 0"30.

Ephemeris:
1999 CV3                 a,e,i = 1.46, 0.39, 23                  q = 0.8847
Date    TT    R. A. (2000) Decl.     Delta      r     Elong.  Phase     V
1999 02 11    10 12.38   +15 18.7    0.283    1.267   171.3     6.7    13.9
1999 02 16    10 10.24   +23 03.6    0.252    1.237   169.0     8.8    13.7
1999 02 21    10 06.98   +32 24.1    0.231    1.206   158.3    17.6    13.7
1999 02 26    10 02.46   +42 53.8    0.218    1.176   145.3    28.6    13.9
1999 03 03    09 56.32   +53 43.2    0.214    1.146   131.9    40.1    14.1
1999 03 08    09 47.63   +63 58.0    0.219    1.116   119.2    50.9    14.4
1999 03 13    09 33.8    +73 00.9    0.230    1.087   107.9    60.5    14.8
1999 03 18    09 05.3    +80 37.9    0.245    1.059    98.3    68.5    15.1
1999 03 23    07 12      +86 33.3    0.263    1.032    90.2    75.0    15.4
1999 03 28    00 29      +86 13.6    0.282    1.006    83.5    80.3    15.7
1999 04 02    23 03.5    +81 50.8    0.301    0.982    77.9    84.6    15.9
1999 04 07    22 41.6    +77 38.1    0.320    0.960    73.4    88.0    16.1
1999 04 12    22 33.2    +73 42.9    0.338    0.940    69.6    90.7    16.3
1999 04 17    22 30.4    +70 00.7    0.355    0.922    66.6    92.7    16.5
1999 04 22    22 30.90   +66 27.4    0.371    0.908    64.3    94.1    16.6

1999 05 02    22 38.71   +59 36.6    0.400    0.889    61.5    95.2    16.8
1999 05 12    22 53.05   +53 01.7    0.423    0.885    60.9    94.4    16.8
1999 05 22    23 11.63   +46 42.3    0.442    0.895    62.1    92.0    16.8
1999 06 01    23 32.70   +40 36.6    0.455    0.920    65.0    88.3    16.8
1999 06 11    23 54.77   +34 41.6    0.463    0.956    69.3    83.7    16.8
1999 06 21    00 16.38   +28 48.2    0.465    1.001    74.9    78.5    16.7
1999 07 01    00 36.38   +22 43.3    0.461    1.053    81.6    72.7    16.6
1999 07 11    00 53.75   +16 13.0    0.453    1.110    89.6    66.3    16.4
1999 07 21    01 07.36   +09 03.2    0.444    1.170    98.9    59.1    16.3
1999 07 31    01 16.24   +01 06.8    0.438    1.231   109.2    51.1    16.1
1999 08 10    01 19.40   -07 29.0    0.438    1.292   120.4    42.6    16.0
1999 08 20    01 15.98   -16 15.0    0.450    1.352   131.4    34.2    15.9
1999 08 30    01 06.03   -24 19.9    0.477    1.411   140.3    27.2    16.0
1999 09 09    00 50.73   -30 51.7    0.523    1.467   145.1    23.1    16.1
1999 09 19    00 32.77   -35 18.8    0.588    1.522   144.6    22.5    16.4
1999 09 29    00 15.66   -37 41.3    0.668    1.574   140.1    24.1    16.8
1999 10 09    00 02.09   -38 21.8    0.763    1.624   133.9    26.3    17.3
1999 10 19    23 53.42   -37 48.1    0.870    1.671   127.0    28.4    17.7
1999 10 29    23 49.72   -36 25.2    0.985    1.715   120.2    30.1    18.0
1999 11 08    23 50.32   -34 31.1    1.108    1.756   113.5    31.2    18.4
1999 11 18    23 54.46   -32 17.6    1.237    1.795   107.0    31.8    18.7
1999 11 28    00 01.38   -29 52.6    1.369    1.831   100.8    32.0    19.0
1999 12 08    00 10.43   -27 20.9    1.503    1.863    94.7    31.8    19.2
1999 12 18    00 21.17   -24 45.6    1.637    1.893    88.8    31.3    19.4
1999 12 28    00 33.21   -22 09.2    1.771    1.920    83.1    30.6    19.6
2000 01 07    00 46.29   -19 33.1    1.902    1.944    77.6    29.6    19.7
2000 01 17    01 00.24   -16 58.5    2.030    1.966    72.1    28.4    19.9
2000 01 27    01 14.90   -14 26.5    2.153    1.984    66.8    27.1    20.0
2000 02 06    01 30.16   -11 57.9    2.270    2.000    61.6    25.7    20.1

Gareth V. Williams           (C) Copyright 1999 MPC           M.P.E.C. 1999-C25

Read MPEC 1999-C24 Read MPEC 1999-C26


Our Web policy. Index to the CBAT/MPC/ICQ pages.


Valid HTML 4.01!